Salisbury, MD

9:41 AM EST on December 08, 2016 (GMT -0500)
Salisbury-Ocean City Wicomico Regional

Weather History for KSBY - December, 2012

Change the Weather History Date:

Saturday, December 29, 2012

  Actual Average Record
Temperature  
Mean Temperature 39 °F 36 °F  
Max Temperature 43 °F 45 °F 73 °F (1984)
Min Temperature 34 °F 27 °F 6 °F (1935)
Degree Days  
Heating Degree Days 26 29  
Month to date heating degree days 500 748  
Since 1 July heating degree days 1244 1566  
Cooling Degree Days 0 0  
Month to date cooling degree days 0 0  
Year to date cooling degree days 1732 1153  
Moisture  
Dew Point 35 °F    
Average Humidity 75    
Maximum Humidity 89    
Minimum Humidity 60    
Precipitation  
Precipitation 0.29 in 0.10 in 2.54 in (1958)
Month to date precipitation 3.26 3.51  
Year to date precipitation 43.23 45.48  
Snow  
Snow 0.00 in 0.00 in 4.00 in (1935)
Month to date snowfall 0.0 1.5  
Since 1 July snowfall 0.0 1.7  
Snow Depth 0.00 in    
Sea Level Pressure  
Sea Level Pressure 29.72 in    
Wind  
Wind Speed 7 mph (NNW)    
Max Wind Speed 21 mph    
Max Gust Speed 29 mph    
Visibility 6 miles    
Events Rain    
T = Trace of Precipitation, MM = Missing Value Source: NWS Daily Summary

Daily Weather History Graph

Daily Weather History Graph

Search for Another Location

Airport or City:

Trip Planner

Search our weather history database for the weather conditions in past years. The results will help you decide how hot, cold, wet, or windy it might be!

Date:

Astronomy

Dec. 29, 2012 Rise Set
Actual Time 7:18 AM EST 4:50 PM EST
Civil Twilight 6:48 AM EST 5:19 PM EST
Nautical Twilight 6:15 AM EST 5:53 PM EST
Astronomical Twilight 5:43 AM EST 6:25 PM EST
Moon 6:19 PM EST (12/29) 7:51 AM EST (12/29)
Length of Visible Light 10h 30m
Length of Day
9h 31m
Full, 98% of the Moon is Illuminated
Dec 29
Full
Jan 4
Last Quarter
Jan 11
New
Jan 18
First Quarter
Jan 26
Full

Hourly Weather History & Observations

Time (EST) Temp. Windchill Dew Point Humidity Pressure Visibility Wind Dir Wind Speed Gust Speed Precip Events Conditions
12:54 AM 35.1 °F - 30.0 °F 82% 30.06 in 10.0 mi Calm Calm - N/A   Clear
1:54 AM 36.0 °F - 30.0 °F 79% 30.04 in 10.0 mi Calm Calm - N/A   Clear
2:54 AM 35.1 °F 32.2 °F 30.9 °F 85% 30.03 in 10.0 mi ESE 3.5 mph - N/A   Scattered Clouds
3:54 AM 36.0 °F - 30.9 °F 82% 30.01 in 10.0 mi Calm Calm - N/A   Overcast
4:54 AM 37.0 °F - 30.9 °F 79% 29.98 in 10.0 mi Calm Calm - N/A   Overcast
5:54 AM 37.0 °F 34.5 °F 30.9 °F 79% 29.95 in 10.0 mi East 3.5 mph - N/A   Overcast
7:54 AM 37.9 °F 33.5 °F 33.1 °F 83% 29.83 in 8.0 mi East 5.8 mph - 0.01 in   Overcast
8:54 AM 39.0 °F 34.8 °F 34.0 °F 82% 29.78 in 6.0 mi East 5.8 mph - N/A   Haze
9:54 AM 39.9 °F 37.8 °F 36.0 °F 86% 29.75 in 2.5 mi ENE 3.5 mph - 0.00 in Rain Light Rain
10:10 AM 41.0 °F 38.0 °F 37.4 °F 87% 29.73 in 3.0 mi NE 4.6 mph - 0.01 in Rain Light Rain
10:22 AM 41.0 °F 39.0 °F 37.4 °F 87% 29.73 in 2.5 mi NE 3.5 mph - 0.01 in Rain Light Rain
10:33 AM 41.0 °F 39.0 °F 37.4 °F 87% 29.72 in 1.5 mi NE 3.5 mph - 0.01 in Rain Light Rain
10:40 AM 42.8 °F 40.1 °F 37.4 °F 81% 29.71 in 1.0 mi NNE 4.6 mph - 0.02 in Rain Light Rain
10:50 AM 42.8 °F 39.3 °F 37.4 °F 81% 29.71 in 1.2 mi North 5.8 mph - 0.03 in Rain Light Rain
10:54 AM 42.1 °F 38.4 °F 37.9 °F 85% 29.72 in 1.2 mi NNW 5.8 mph - 0.04 in Rain Light Rain
11:04 AM 42.8 °F 39.3 °F 37.4 °F 81% 29.70 in 1.2 mi North 5.8 mph - 0.01 in Rain Light Rain
11:54 AM 42.1 °F 39.2 °F 39.0 °F 89% 29.66 in 1.5 mi NNE 4.6 mph - 0.09 in Rain Light Rain
12:27 PM 42.8 °F 38.6 °F 39.2 °F 87% 29.62 in 2.0 mi NNW 6.9 mph - 0.05 in Rain Light Rain
12:54 PM 43.0 °F 36.8 °F 39.9 °F 89% 29.60 in 2.0 mi NNW 11.5 mph - 0.08 in Rain Light Rain
1:15 PM 42.8 °F 37.5 °F 39.2 °F 87% 29.58 in 3.0 mi NNW 9.2 mph - 0.04 in Rain Rain
1:54 PM 41.0 °F 36.4 °F 37.9 °F 89% 29.56 in 4.0 mi NW 6.9 mph - 0.05 in Rain Light Rain
2:54 PM 43.0 °F 38.2 °F 39.0 °F 86% 29.53 in 7.0 mi NW 8.1 mph - 0.01 in   Overcast
3:54 PM 43.0 °F 38.2 °F 39.0 °F 86% 29.54 in 7.0 mi NW 8.1 mph - N/A   Overcast
4:54 PM 42.1 °F 36.1 °F 37.9 °F 85% 29.56 in 8.0 mi WNW 10.4 mph - N/A   Overcast
5:16 PM 41.0 °F 33.9 °F 37.4 °F 87% 29.56 in 10.0 mi West 12.7 mph - N/A   Overcast
5:41 PM 39.2 °F 31.2 °F 35.6 °F 87% 29.57 in 10.0 mi WNW 13.8 mph 20.7 mph N/A   Overcast
6:26 PM 39.2 °F 31.6 °F 33.8 °F 81% 29.60 in 10.0 mi West 12.7 mph - N/A   Scattered Clouds
6:37 PM 39.2 °F 32.5 °F 33.8 °F 81% 29.60 in 10.0 mi West 10.4 mph 18.4 mph N/A   Partly Cloudy
6:54 PM 39.0 °F 32.8 °F 34.0 °F 82% 29.62 in 10.0 mi West 9.2 mph - N/A   Mostly Cloudy
7:54 PM 39.9 °F 33.4 °F 35.1 °F 83% 29.65 in 10.0 mi West 10.4 mph - N/A   Overcast
8:54 PM 41.0 °F 33.5 °F 34.0 °F 76% 29.67 in 10.0 mi WNW 13.8 mph 25.3 mph N/A   Overcast
9:54 PM 42.1 °F 34.5 °F 30.0 °F 62% 29.70 in 10.0 mi WNW 15.0 mph 24.2 mph N/A   Overcast
10:54 PM 41.0 °F 33.9 °F 28.9 °F 62% 29.73 in 10.0 mi WNW 12.7 mph 20.7 mph N/A   Overcast
11:54 PM 41.0 °F 33.5 °F 27.0 °F 57% 29.76 in 10.0 mi WNW 13.8 mph 21.9 mph N/A   Overcast